| time (UTC) | temp F | wind direction | speed MPH | gust MPH | rain 1hr in | rain 24hr in | rain mn in | humidity % | barometer mb |
| 20260906064507 | 60 | 302 | 2.0 | 0.0 | 0.00 | 0.00 | 0.00 | 87 | 1100.1 |
| 20260906061624 | 60 | 302 | 1.0 | 0.0 | 0.00 | 0.00 | 0.00 | 88 | 1100.1 |
| 20260906060026 | 60 | 302 | 0.0 | 0.0 | 0.00 | 0.00 | 0.00 | 88 | 1100.1 |
| 20260906053129 | 60 | 302 | 0.0 | 0.0 | 0.00 | 0.00 | 0.00 | 87 | 1100.1 |
| 20260906051630 | 60 | 302 | 1.0 | 0.0 | 0.00 | 0.00 | 0.00 | 87 | 1100.1 |
| 20260906050028 | 59 | 302 | 0.0 | 0.0 | 0.00 | 0.00 | 0.00 | 87 | 1100.1 |
| 20260906043016 | 60 | 302 | 1.0 | 0.0 | 0.00 | 0.00 | 0.00 | 87 | 1100.1 |
| 20260906041651 | 59 | 302 | 0.0 | 0.0 | 0.00 | 0.00 | 0.00 | 86 | 1100.1 |
| 20260906031658 | 61 | 302 | 0.0 | 0.0 | 0.00 | 0.00 | 0.00 | 84 | 1100.1 |
| 20260906030146 | 61 | 302 | 1.0 | 0.0 | 0.00 | 0.00 | 0.00 | 84 | 1100.1 |
| 20260906023001 | 61 | 302 | 0.0 | 0.0 | 0.00 | 0.00 | 0.00 | 82 | 1100.1 |
| 20260906021647 | 62 | 302 | 0.0 | 0.0 | 0.00 | 0.00 | 0.00 | 81 | 1100.1 |
| 20260906020157 | 62 | 302 | 1.0 | 0.0 | 0.00 | 0.00 | 0.00 | 80 | 1100.1 |
| 20260906013133 | 64 | 302 | 4.0 | 0.0 | 0.00 | 0.00 | 0.00 | 80 | 1100.1 |
| 20260906011659 | 64 | 302 | 3.0 | 0.0 | 0.00 | 0.00 | 0.00 | 81 | 1100.1 |
| 20260906010147 | 63 | 302 | 4.0 | 0.0 | 0.00 | 0.00 | 0.00 | 83 | 1100.1 |
| 20260906004508 | 62 | 302 | 1.0 | 0.0 | 0.00 | 0.00 | 0.00 | 84 | 1100.1 |
| 20260906001517 | 61 | 5 | 0.0 | 0.0 | 0.00 | 0.00 | 0.00 | 84 | 1100.1 |
| 20260905233111 | 63 | 5 | 0.0 | 0.0 | 0.00 | 0.00 | 0.00 | 80 | 1100.1 |
| 20260905230055 | 64 | 11 | 5.0 | 0.0 | 0.00 | 0.00 | 0.00 | 79 | 1100.1 |
| 20260905224644 | 64 | 355 | 4.0 | 0.0 | 0.00 | 0.00 | 0.00 | 79 | 1100.1 |
| 20260905211515 | 65 | 39 | 7.0 | 0.0 | 0.00 | 0.00 | 0.00 | 77 | 1100.1 |
| 20260905210140 | 66 | 53 | 8.0 | 0.0 | 0.00 | 0.00 | 0.00 | 77 | 1100.1 |
| 20260905203019 | 66 | 22 | 10.0 | 0.0 | 0.00 | 0.00 | 0.00 | 78 | 1100.1 |
| 20260905201635 | 66 | 52 | 8.0 | 0.0 | 0.00 | 0.00 | 0.00 | 78 | 1100.1 |
| 20260905193020 | 66 | 44 | 7.0 | 0.0 | 0.00 | 0.00 | 0.00 | 81 | 1100.1 |
| 20260905191508 | 66 | 348 | 6.0 | 0.0 | 0.00 | 0.00 | 0.00 | 82 | 1100.1 |
| 20260905190111 | 67 | 31 | 9.0 | 0.0 | 0.00 | 0.00 | 0.00 | 82 | 1100.1 |
| 20260905184655 | 67 | 34 | 7.0 | 0.0 | 0.00 | 0.00 | 0.00 | 80 | 1100.1 |
| 20260905181634 | 67 | 28 | 7.0 | 0.0 | 0.00 | 0.00 | 0.00 | 78 | 1100.1 |
| 20260905180131 | 67 | 57 | 8.0 | 0.0 | 0.00 | 0.00 | 0.00 | 78 | 1100.1 |
| 20260905174646 | 68 | 36 | 7.0 | 0.0 | 0.00 | 0.00 | 0.00 | 78 | 1100.1 |
| 20260905171637 | 68 | 5 | 7.0 | 0.0 | 0.00 | 0.00 | 0.00 | 79 | 1100.1 |
| 20260905164633 | 68 | 5 | 9.0 | 0.0 | 0.00 | 0.00 | 0.00 | 78 | 1100.1 |
| 20260905163103 | 68 | 40 | 9.0 | 0.0 | 0.00 | 0.00 | 0.00 | 78 | 1100.1 |
| 20260905161621 | 68 | 17 | 11.0 | 0.0 | 0.00 | 0.00 | 0.00 | 78 | 1100.1 |
| 20260905160138 | 68 | 360 | 9.0 | 0.0 | 0.00 | 0.00 | 0.00 | 77 | 1100.1 |
| 20260905153117 | 69 | 5 | 10.0 | 0.0 | 0.00 | 0.00 | 0.00 | 76 | 1100.1 |
| 20260905151646 | 70 | 346 | 9.0 | 0.0 | 0.00 | 0.00 | 0.00 | 74 | 1100.1 |
| 20260905150145 | 70 | 10 | 8.0 | 0.0 | 0.00 | 0.00 | 0.00 | 74 | 1100.1 |
| 20260905144613 | 69 | 17 | 9.0 | 0.0 | 0.00 | 0.00 | 0.00 | 74 | 1100.1 |
| 20260905143008 | 70 | 15 | 8.0 | 0.0 | 0.00 | 0.00 | 0.00 | 74 | 1100.1 |
| 20260905141502 | 69 | 5 | 9.0 | 0.0 | 0.00 | 0.00 | 0.00 | 75 | 1100.1 |
| 20260905140140 | 69 | 11 | 9.0 | 0.0 | 0.00 | 0.00 | 0.00 | 76 | 1100.1 |
| 20260905134505 | 69 | 29 | 8.0 | 0.0 | 0.00 | 0.00 | 0.00 | 78 | 1100.1 |
| 20260905124514 | 68 | 360 | 7.0 | 0.0 | 0.00 | 0.00 | 0.00 | 78 | 1100.1 |
| 20260905121631 | 66 | 236 | 5.0 | 0.0 | 0.00 | 0.00 | 0.00 | 81 | 1100.1 |
| 20260905110156 | 61 | 236 | 0.0 | 0.0 | 0.00 | 0.00 | 0.00 | 87 | 1100.1 |
| 20260905103145 | 60 | 236 | 1.0 | 0.0 | 0.00 | 0.00 | 0.00 | 87 | 1100.1 |
| 20260905101515 | 61 | 236 | 0.0 | 0.0 | 0.00 | 0.00 | 0.00 | 88 | 1100.1 |
| 20260905100133 | 60 | 236 | 1.0 | 0.0 | 0.00 | 0.00 | 0.00 | 88 | 1100.1 |
| 20260905093101 | 60 | 236 | 0.0 | 0.0 | 0.00 | 0.00 | 0.00 | 89 | 1100.1 |
| 20260905091505 | 60 | 236 | 0.0 | 0.0 | 0.00 | 0.00 | 0.00 | 89 | 1100.1 |
| 20260905090011 | 60 | 236 | 0.0 | 0.0 | 0.00 | 0.00 | 0.00 | 89 | 1100.1 |
| 20260905083004 | 60 | 235 | 0.0 | 0.0 | 0.00 | 0.00 | 0.00 | 89 | 1100.1 |